LAPAN-TUBSAT

Last updated on Sun Jul 06 2025 00:02:28 GMT+0000 (Coordinated Universal Time)

1 29709U 07001A 25186.53450100 .00000444 00000+0 58160-4 0 9990 2 29709 98.1103 173.5371 0011182 229.9328 130.0907 14.85364646999684
UTC large
Height (km)
Speed (km/s)
/
Latitude / Longitude
Inclination (degrees)
Orbital Period (minutes)
Azimuth
Elevation
Range (km)
Doppler Factor

Next 0 passes for location: London (51.5072 / 0.1276)

Sorry there are no passes over London.